Home > Weather > Iqaluit > Past weeks

Flag for Canada Weather for the Past 2 Weeks in Iqaluit, Nunavut, Canada

Now
-20 °F

Snow flurries. Partly sunny.


Feels Like: -20 °F
Forecast: N/A
Wind: No wind

Location: Iqaluit

Current Time: Feb 9, 2016 at 4:16:18 PM

Latest Report: Feb 9, 2016 at 3:00 PM


Visibility: 15 mi

Pressure: 30.20 "Hg

Humidity: 75%

Dew point: -26 °F

Location of IqaluitLocation

Historic Weather in Iqaluit — Graph

°F

Iqaluit Temperature Yesterday

Maximum temperature yesterday: -20 °F (at 3:15 PM)
Minimum temperature yesterday: -26 °F (at 7:00 AM)
Average temperature yesterday: -23 °F

High & Low Weather Summary for the Past Weeks

 TemperatureHumidityPressure
High9 °F (Feb 2, 6:00 AM)84% (Feb 2, 12:00 AM)30.27 "Hg (Feb 2, 12:00 AM)
Low-31 °F (Jan 28, 1:00 AM)51% (Jan 27, 4:00 AM)29.33 "Hg (Jan 26, 1:00 PM)
Average-17 °F69%29.79 "Hg
* Reported Jan 25 3:00 PM — Feb 9 3:00 PM, Iqaluit, Weather by CustomWeather, © 2016

Note: Actual official high and low records may vary slightly from our data, if they occured in-between our weather recording intervals... More about our weather records

Advertising

Iqaluit Weather History for the Previous 24 Hours

 ConditionsComfort  
Time TempWeatherWind HumidityBarometerVisibility
3:00 PM
Tue, Feb 9
-20 °FSnow flurries. Partly sunny.No wind75%30.20 "Hg15 mi
2:00 PM-17 °FSnow flurries. Broken clouds.2 mph69%30.21 "Hg6 mi
1:00 PM-17 °FSnow flurries. Partly sunny.3 mph69%30.21 "Hg6 mi
12:00 PM-18 °FSnow flurries. Partly sunny.No wind69%30.21 "Hg8 mi
11:00 AM-18 °FSnow flurries. Partly sunny.No wind69%30.24 "Hg8 mi
10:00 AM-18 °FSnow flurries. Partly sunny.No wind69%30.24 "Hg12 mi
9:00 AM-20 °FSnow flurries. Partly sunny.2 mph68%30.25 "Hg10 mi
8:00 AM-22 °FSnow flurries. Partly sunny.No wind75%30.24 "Hg12 mi
7:00 AM-22 °FSnow flurries. Passing clouds.2 mph75%30.24 "Hg15 mi
6:00 AM-24 °FSnow flurries. Passing clouds.5 mph68%30.25 "Hg15 mi
5:00 AM-26 °FSnow flurries. Passing clouds.2 mph67%30.26 "Hg15 mi
4:00 AM-24 °FPassing clouds.5 mph75%30.26 "Hg15 mi
3:00 AM-24 °FSnow flurries. Passing clouds.2 mph68%30.26 "Hg15 mi
2:00 AM-24 °FSnow flurries. Passing clouds.2 mph75%30.25 "Hg15 mi
1:00 AM-24 °FSnow flurries. Partly cloudy.No wind75%30.26 "Hg15 mi
12:00 AM-24 °FSnow flurries. Passing clouds.No wind75%30.27 "Hg15 mi
11:00 PM
Mon, Feb 8
-24 °FSnow flurries. Partly cloudy.No wind68%30.27 "Hg15 mi
10:00 PM-26 °FSnow flurries. Partly cloudy.3 mph67%30.27 "Hg15 mi
9:00 PM-24 °FSnow flurries. Passing clouds.2 mph68%30.27 "Hg6 mi
8:00 PM-24 °FSnow flurries. Passing clouds.3 mph75%30.27 "Hg10 mi
7:00 PM-24 °FSnow flurries. Passing clouds.3 mph68%30.27 "Hg10 mi
6:00 PM-20 °FSnow flurries. Passing clouds.3 mph68%30.26 "Hg5 mi
5:00 PM-20 °FSnow flurries. Overcast.2 mph68%30.26 "Hg4 mi
4:00 PM-20 °FSnow flurries. Passing clouds.No wind68%30.25 "Hg5 mi
Weather by CustomWeather, © 2016

See weather overviewHow to use our weather pages